Weather History for Fort Stockton, TX

Change the Weather History Date:

Thursday, November 22, 2012

  Actual Average Record
Temperature  
Mean Temperature 68 °F -  
Max Temperature 81 °F 64 °F 82 °F (2003)
Min Temperature 55 °F 41 °F 28 °F (2013)
Cooling Degree Days 3    
Growing Degree Days 18 (Base 50)    
Moisture  
Dew Point 43 °F    
Average Humidity 49    
Maximum Humidity 81    
Minimum Humidity 18    
Precipitation  
Precipitation 0.01 in - - ()
Sea Level Pressure  
Sea Level Pressure 29.98 in    
Wind  
Wind Speed 9 mph (SW)    
Max Wind Speed 15 mph    
Max Gust Speed 18 mph    
Visibility 10 miles    
Events Rain    
Averages and records for this station are not official NWS values.
T = Trace of Precipitation, MM = Missing Value Source: NWS Daily Summary

Daily Weather History Graph

Daily Weather History Graph

Search for Another Location

Airport:

Trip Planner

Search our weather history database for the weather conditions in past years. The results will help you decide how hot, cold, wet, or windy it might be!

Date:

Astronomy

Nov. 22, 2012 Rise Set
Actual Time 7:24 AM CST 5:50 PM CST
Civil Twilight 6:58 AM CST 6:16 PM CST
Nautical Twilight 6:29 AM CST 6:46 PM CST
Astronomical Twilight 6:00 AM CST 7:15 PM CST
Moon 2:19 PM CST (11/22) 2:06 AM CST (11/22)
Length of Visible Light 11h 17m
Length of Day
10h 26m
Waxing Gibbous, 71% of the Moon is Illuminated
Nov 22
Waxing Gibbous
Nov 28
Full
Dec 6
Last Quarter
Dec 13
New
Dec 19
First Quarter

Hourly Weather History & Observations

Time (CST) Temp. Dew Point Humidity Pressure Visibility Wind Dir Wind Speed Gust Speed Precip Events Conditions
12:53 AM 63.0 °F 50.0 °F 63% 29.96 in 10.0 mi SE 12.7 mph - N/A   Mostly Cloudy
1:53 AM 59.0 °F 53.1 °F 81% 29.96 in 10.0 mi WSW 5.8 mph - 0.01 in Rain Light Rain
2:53 AM 57.9 °F 52.0 °F 81% 29.97 in 10.0 mi Calm Calm - 0.00 in   Overcast
3:53 AM 57.0 °F 50.0 °F 77% 29.96 in 10.0 mi South 6.9 mph - N/A   Clear
4:53 AM 55.9 °F 48.0 °F 75% 29.96 in 10.0 mi SSW 11.5 mph - N/A   Clear
5:53 AM 55.0 °F 46.9 °F 74% 29.96 in 10.0 mi SSW 11.5 mph - N/A   Clear
6:53 AM 55.0 °F 46.9 °F 74% 29.97 in 10.0 mi SW 13.8 mph - N/A   Clear
7:53 AM 55.9 °F 46.9 °F 72% 29.99 in 10.0 mi SW 15.0 mph - N/A   Clear
8:53 AM 63.0 °F 48.0 °F 58% 30.00 in 10.0 mi SW 13.8 mph - N/A   Clear
9:53 AM 69.1 °F 46.9 °F 45% 30.01 in 10.0 mi SW 12.7 mph - N/A   Clear
10:53 AM 73.9 °F 44.1 °F 34% 30.01 in 10.0 mi WSW 8.1 mph - N/A   Clear
11:53 AM 78.1 °F 43.0 °F 29% 29.99 in 10.0 mi Variable 6.9 mph - N/A   Clear
12:53 PM 78.1 °F 39.9 °F 25% 29.96 in 10.0 mi NW 6.9 mph 18.4 mph N/A   Clear
1:53 PM 81.0 °F 39.9 °F 23% 29.94 in 10.0 mi West 9.2 mph - N/A   Clear
2:53 PM 81.0 °F 37.9 °F 21% 29.92 in 10.0 mi West 6.9 mph 18.4 mph N/A   Clear
3:53 PM 81.0 °F 37.9 °F 21% 29.92 in 10.0 mi West 6.9 mph - N/A   Clear
4:53 PM 80.1 °F 33.1 °F 18% 29.93 in 10.0 mi West 10.4 mph - N/A   Clear
5:53 PM 71.1 °F 35.1 °F 27% 29.96 in 10.0 mi SW 4.6 mph - N/A   Clear
6:53 PM 68.0 °F 34.0 °F 28% 29.98 in 10.0 mi WSW 4.6 mph - N/A   Clear
7:53 PM 64.9 °F 35.1 °F 33% 30.01 in 10.0 mi SW 5.8 mph - N/A   Clear
8:53 PM 61.0 °F 39.0 °F 44% 30.02 in 10.0 mi SSW 4.6 mph - N/A   Clear
9:53 PM 60.1 °F 43.0 °F 53% 30.03 in 10.0 mi SW 9.2 mph - N/A   Clear
10:53 PM 61.0 °F 44.1 °F 54% 30.03 in 10.0 mi SW 10.4 mph - N/A   Clear
11:53 PM 60.1 °F 45.0 °F 57% 30.04 in 10.0 mi SW 12.7 mph - N/A   Clear